Bangor, ME

10:59 PM EDT on April 26, 2018 (GMT -0400)
Bangor International

Weather History for KBGR - March, 2014

Change the Weather History Date:

Wednesday, March 12, 2014

  Actual Average Record
Temperature  
Mean Temperature 29 °F 29 °F  
Max Temperature 37 °F 39 °F 62 °F (2012)
Min Temperature 20 °F 19 °F -4 °F (1941)
Degree Days  
Heating Degree Days 36 36  
Month to date heating degree days 545 458  
Since 1 July heating degree days 6297 6104  
Cooling Degree Days 0 0  
Month to date cooling degree days 0 0  
Year to date cooling degree days 0 0  
Moisture  
Dew Point 27 °F    
Average Humidity 78    
Maximum Humidity 92    
Minimum Humidity 64    
Precipitation  
Precipitation 0.94 in 0.10 in 1.47 in (1985)
Month to date precipitation 0.96 1.19  
Year to date precipitation 6.13 6.60  
Snow  
Snow 7.60 in 0.40 in 10.70 in (1959)
Month to date snowfall 8.1 5.4  
Since 1 July snowfall 71.3 56.1  
Snow Depth 5.00 in    
Sea Level Pressure  
Sea Level Pressure 29.58 in    
Wind  
Wind Speed 6 mph (NNE)    
Max Wind Speed 33 mph    
Max Gust Speed 42 mph    
Visibility 4 miles    
Events Fog , Snow    
T = Trace of Precipitation, MM = Missing Value Source: NWS Daily Summary

Daily Weather History Graph

Daily Weather History Graph

Search for Another Location

Airport or City:

Astronomy

Mar. 12, 2014 Rise Set
Actual Time 6:53 AM EDT 6:37 PM EDT
Civil Twilight 6:24 AM EDT 7:06 PM EDT
Nautical Twilight 5:50 AM EDT 7:40 PM EDT
Astronomical Twilight 5:15 AM EDT 8:15 PM EDT
Moon 2:57 PM EDT (3/12) 4:30 AM EDT (3/12)
Length of Visible Light 12h 42m
Length of Day
11h 44m
Waxing Gibbous, 85% of the Moon is Illuminated
Mar 12
Waxing Gibbous
Mar 16
Full
Mar 23
Last Quarter
Mar 30
New
Apr 7
First Quarter

Hourly Weather History & Observations

Time (EDT) Temp. Windchill Dew Point Humidity Pressure Visibility Wind Dir Wind Speed Gust Speed Precip Events Conditions
12:53 AM 37.0 °F 34.5 °F 27.0 °F 67% 29.70 in 10.0 mi WSW 3.5 mph - N/A   Overcast
1:53 AM 36.0 °F 32.1 °F 27.0 °F 70% 29.71 in 10.0 mi SSW 4.6 mph - N/A   Mostly Cloudy
2:53 AM 32.0 °F - 26.1 °F 79% 29.70 in 10.0 mi Calm Calm - N/A   Scattered Clouds
3:53 AM 30.9 °F - 25.0 °F 79% 29.70 in 10.0 mi Calm Calm - N/A   Scattered Clouds
4:53 AM 30.9 °F - 24.1 °F 76% 29.71 in 10.0 mi Calm Calm - N/A   Scattered Clouds
5:53 AM 32.0 °F - 25.0 °F 75% 29.72 in 10.0 mi Calm Calm - N/A   Overcast
6:53 AM 32.0 °F - 25.0 °F 75% 29.73 in 10.0 mi Calm Calm - N/A   Mostly Cloudy
7:53 AM 32.0 °F 28.7 °F 26.1 °F 79% 29.72 in 10.0 mi South 3.5 mph - N/A   Mostly Cloudy
8:53 AM 34.0 °F 31.0 °F 26.1 °F 73% 29.72 in 10.0 mi South 3.5 mph - N/A   Overcast
9:53 AM 35.1 °F - 28.0 °F 76% 29.72 in 10.0 mi Calm Calm - N/A   Overcast
10:53 AM 37.0 °F 34.5 °F 27.0 °F 67% 29.73 in 10.0 mi South 3.5 mph - 0.00 in Snow Light Snow
11:24 AM 36.0 °F 32.1 °F 28.0 °F 73% 29.71 in 2.5 mi North 4.6 mph - 0.00 in Snow Light Snow
11:53 AM 35.1 °F 31.0 °F 30.0 °F 82% 29.70 in 2.5 mi North 4.6 mph - 0.00 in Snow Light Snow
12:06 PM 35.1 °F 32.2 °F 30.0 °F 82% 29.69 in 1.8 mi North 3.5 mph - 0.01 in Snow Light Snow
12:25 PM 34.0 °F 29.8 °F 30.9 °F 89% 29.69 in 1.8 mi NNE 4.6 mph - 0.01 in Snow Light Snow
12:53 PM 34.0 °F 31.0 °F 30.9 °F 89% 29.69 in 1.5 mi NNE 3.5 mph - 0.03 in Snow Light Snow
1:16 PM 34.0 °F 31.0 °F 30.9 °F 89% 29.66 in 1.0 mi NE 3.5 mph - 0.02 in Snow Light Snow
1:31 PM 34.0 °F 31.0 °F 30.9 °F 89% 29.66 in 1.0 mi NNE 3.5 mph - 0.03 in Snow Light Snow
1:48 PM 33.8 °F 30.8 °F 30.2 °F 87% 29.66 in 0.8 mi NE 3.5 mph - 0.04 in Snow Light Snow
1:53 PM 33.1 °F 30.0 °F 30.9 °F 92% 29.66 in 0.8 mi NE 3.5 mph - 0.05 in Snow Light Snow
2:53 PM 33.1 °F 28.7 °F 30.9 °F 92% 29.64 in 0.5 mi ENE 4.6 mph - 0.09 in Fog , Snow Snow
3:53 PM 33.1 °F 24.9 °F 30.9 °F 92% 29.57 in 0.5 mi NE 10.4 mph - 0.08 in Fog , Snow Snow
4:45 PM 33.1 °F 24.9 °F 30.9 °F 92% 29.53 in 0.5 mi NNE 10.4 mph - 0.08 in Fog , Snow Snow
4:53 PM 33.1 °F 24.4 °F 30.9 °F 92% 29.53 in 0.5 mi NNE 11.5 mph - 0.09 in Fog , Snow Snow
5:25 PM 33.1 °F 24.4 °F 30.9 °F 92% 29.49 in 0.5 mi NE 11.5 mph - 0.06 in Fog , Snow Snow
5:53 PM 33.1 °F 24.4 °F 30.9 °F 92% 29.47 in 0.5 mi NE 11.5 mph - 0.10 in Fog , Snow Snow
6:53 PM 33.1 °F 23.0 °F 30.9 °F 92% 29.41 in 0.5 mi NE 15.0 mph - 0.10 in Fog , Snow Snow
7:53 PM 32.0 °F 20.5 °F 30.0 °F 92% 29.36 in 0.5 mi NNE 18.4 mph - 0.11 in Fog , Snow Snow
8:53 PM 26.1 °F 11.6 °F 23.0 °F 88% 29.33 in 0.5 mi NNE 21.9 mph 33.4 mph 0.09 in Fog , Snow Snow
8:56 PM 26.1 °F 12.7 °F 23.0 °F 88% 29.32 in 0.8 mi NNE 18.4 mph 33.4 mph 0.00 in Snow Light Snow
9:53 PM 24.1 °F 8.3 °F 19.9 °F 84% 29.29 in 1.0 mi NNE 24.2 mph 31.1 mph 0.05 in Snow Light Snow
10:23 PM 23.0 °F 8.0 °F 19.9 °F 88% 29.27 in 1.0 mi NNE 20.7 mph 32.2 mph 0.04 in Snow Light Snow
10:53 PM 23.0 °F 6.9 °F 19.0 °F 85% 29.25 in 1.0 mi NNE 24.2 mph 33.4 mph 0.09 in Snow Light Snow
11:53 PM 21.9 °F 6.9 °F 18.0 °F 85% 29.22 in 1.0 mi North 19.6 mph 27.6 mph 0.03 in Snow Light Snow